History for DABB

Annaba, DZ

Daily Weekly Monthly
Daily Summary for Thursday, March 21, 2019
  Actual: Average: Record:
Temperature
Mean Temperature: 52 °F / 10 °C - :  
Max Temperature: 53 °F / 11 °C 67 °F / 19 °C - ()
Min Temperature: 48 °F / 9 °C 48 °F / 9 °C - ()
Degree Days
Heating Degree Days: 14    
Growing Degree Days 2 (Base 50)    
Moisture
Dew Point 50 °F / 10 °C    
Average Humidity 95    
Maximum Humidity 100    
Minimum Humidity 88    
Precipitation
Precipitation 1.85 in / 47.0 cm 0.07 in / 1.8 cm - ()
Sea Level Pressure
Sea Level Pressure 29.96 in / 1014.38 hPa   
Wind
Wind Speed 11 mph / 17 km/h ()  
Max Wind Speed 33 mph / 54 km/h   
Max Gust Speed 46 mph / 74 km/h   
Visibility 3.4 miles / 5.5 kilometers   
Events Rain , Thunderstorm   

Key: T is trace of precipitation, MM is missing value
Source: Averaged Metar Reports

Graphs

Observations

History Graphs Observations

Obs Go Here...

Features

Weather Apps

WunderRadio

Weather Underground Apps
Check out our wide variety of mobile and setup applications.

Weather Underground Applications

Top of Page

© Copyright 2019
The Weather Company, LLC
Time(CET)TemperatureDew PointHumidity Sea Level Pressure Visibility Wind DirectionWind SpeedGust SpeedPrecipitationEvents Conditions
12:00 AM 51.8 °F / 11.0 °C 50.0 °F / 10.0 °C 94% 30.01 in / 1016 hPa 3.7 miles / 6.0 kilometers North 20.7 mph / 33.3 km/h - N/A Rain Light Rain
12:30 AM 51.8 °F / 11.0 °C 50.0 °F / 10.0 °C 94% 29.98 in / 1015 hPa 3.1 miles / 5.0 kilometers NNW 17.3 mph / 27.8 km/h - N/A Rain Heavy Rain
1:00 AM 53 °F / 11 °C 51 °F / 11 °C 91% 29.97 in / 1015 hPa 2 miles / 4.0 kilometers NNW 15.0 mph / 24.1 km/h - - Rain Heavy Rain
1:00 AM 51.8 °F / 11.0 °C 51.8 °F / 11.0 °C 100% 29.95 in / 1014 hPa 2.5 miles / 4.0 kilometers NNW 15.0 mph / 24.1 km/h - N/A Rain Heavy Rain
1:30 AM 55.4 °F / 13.0 °C 53.6 °F / 12.0 °C 94% 29.95 in / 1014 hPa 3.1 miles / 5.0 kilometers NNE 26.5 mph / 42.6 km/h - N/A Rain Rain
2:00 AM 55.4 °F / 13.0 °C 53.6 °F / 12.0 °C 94% 29.92 in / 1013 hPa 3.1 miles / 5.0 kilometers NNE 31.1 mph / 50.0 km/h - N/A Rain Rain
3:00 AM 57.2 °F / 14.0 °C 53.6 °F / 12.0 °C 88% 29.89 in / 1012 hPa 3.1 miles / 5.0 kilometers NE 33.4 mph / 53.7 km/h 46.0 mph / 74.1 km/h N/A Rain Light Rain
3:30 AM 51.8 °F / 11.0 °C 50.0 °F / 10.0 °C 94% 29.92 in / 1013 hPa 3.1 miles / 5.0 kilometers ENE 17.3 mph / 27.8 km/h - N/A Rain Light Rain
4:00 AM 52 °F / 11 °C 50 °F / 10 °C 91% 29.92 in / 1013 hPa 3 miles / 5 kilometers ENE 18.4 mph / 29.6 km/h - - Rain Light Rain
4:00 AM 51.8 °F / 11.0 °C 50.0 °F / 10.0 °C 94% 29.92 in / 1013 hPa 3.1 miles / 5.0 kilometers ENE 18.4 mph / 29.6 km/h - N/A Rain Light Rain
4:30 AM 51.8 °F / 11.0 °C 50.0 °F / 10.0 °C 94% 29.92 in / 1013 hPa 3.1 miles / 5.0 kilometers ENE 18.4 mph / 29.6 km/h - N/A   Mostly Cloudy
5:30 AM 51.8 °F / 11.0 °C 50.0 °F / 10.0 °C 94% 29.89 in / 1012 hPa 3.1 miles / 5.0 kilometers ENE 3.5 mph / 5.6 km/h - N/A Rain Rain
7:00 AM 50.0 °F / 10.0 °C 48.2 °F / 9.0 °C 94% 29.92 in / 1013 hPa 1.9 miles / 3.0 kilometers NW 3.5 mph / 5.6 km/h - N/A Rain Rain
7:30 AM 50.0 °F / 10.0 °C 48.2 °F / 9.0 °C 94% 29.92 in / 1013 hPa 1.9 miles / 3.0 kilometers NW 5.8 mph / 9.3 km/h - N/A Rain , Thunderstorm Thunderstorms and Rain
8:30 AM 50.0 °F / 10.0 °C 48.2 °F / 9.0 °C 94% 29.95 in / 1014 hPa - North - - N/A Rain , Thunderstorm Thunderstorms and Rain
9:00 AM 50.0 °F / 10.0 °C 48.2 °F / 9.0 °C 94% 29.95 in / 1014 hPa - North - - N/A Rain Rain
9:30 AM 50.0 °F / 10.0 °C 48.2 °F / 9.0 °C 94% 29.95 in / 1014 hPa - North - - N/A Rain Rain
10:00 AM 50.0 °F / 10.0 °C 50.0 °F / 10.0 °C 100% 29.98 in / 1015 hPa - North - - N/A Rain Light Rain
11:00 AM 51.8 °F / 11.0 °C 50.0 °F / 10.0 °C 94% 29.98 in / 1015 hPa - North - - N/A Rain Light Rain
11:30 AM 51.8 °F / 11.0 °C 48.2 °F / 9.0 °C 88% 29.98 in / 1015 hPa 3.1 miles / 5.0 kilometers NNW 2.3 mph / 3.7 km/h - N/A Rain Light Rain
12:00 PM 51.8 °F / 11.0 °C 51.8 °F / 11.0 °C 100% 29.98 in / 1015 hPa 3.1 miles / 5.0 kilometers NW 3.5 mph / 5.6 km/h - N/A Rain Light Rain
12:30 PM 51.8 °F / 11.0 °C 50.0 °F / 10.0 °C 94% 29.98 in / 1015 hPa 3.1 miles / 5.0 kilometers NNW 5.8 mph / 9.3 km/h - N/A Rain Light Rain
1:00 PM 52 °F / 11 °C 51 °F / 11 °C 96% 29.98 in / 1015 hPa 3 miles / 5 kilometers NW 3.5 mph / 5.6 km/h - - Rain Light Rain
1:00 PM 51.8 °F / 11.0 °C 51.8 °F / 11.0 °C 100% 29.98 in / 1015 hPa 3.1 miles / 5.0 kilometers NW 3.5 mph / 5.6 km/h - N/A Rain Light Rain
1:30 PM 51.8 °F / 11.0 °C 50.0 °F / 10.0 °C 94% 29.95 in / 1014 hPa 3.1 miles / 5.0 kilometers NW 3.5 mph / 5.6 km/h - N/A Rain Light Rain
2:00 PM 51.8 °F / 11.0 °C 50.0 °F / 10.0 °C 94% 29.95 in / 1014 hPa 1.9 miles / 3.0 kilometers Calm Calm - N/A Rain Light Rain
2:30 PM 51.8 °F / 11.0 °C 50.0 °F / 10.0 °C 94% 29.95 in / 1014 hPa 1.9 miles / 3.0 kilometers Calm Calm - N/A Rain Light Rain
3:00 PM 51.8 °F / 11.0 °C 51.8 °F / 11.0 °C 100% 29.95 in / 1014 hPa 3.1 miles / 5.0 kilometers Calm Calm - N/A Rain Light Rain
4:00 PM 52 °F / 11 °C 51 °F / 10 °C 93% 29.96 in / 1014 hPa 3 miles / 5 kilometers Calm Calm - - Rain Light Rain
4:00 PM 51.8 °F / 11.0 °C 50.0 °F / 10.0 °C 94% 29.95 in / 1014 hPa 3.1 miles / 5.0 kilometers Calm Calm - N/A Rain Light Rain
4:30 PM 51.8 °F / 11.0 °C 51.8 °F / 11.0 °C 100% 29.92 in / 1013 hPa 3.7 miles / 6.0 kilometers Calm Calm - N/A   Mostly Cloudy
5:30 PM 51.8 °F / 11.0 °C 50.0 °F / 10.0 °C 94% 29.92 in / 1013 hPa 3.1 miles / 5.0 kilometers NW 3.5 mph / 5.6 km/h - N/A Rain Light Rain
6:00 PM 53.6 °F / 12.0 °C 51.8 °F / 11.0 °C 94% 29.92 in / 1013 hPa 4.3 miles / 7.0 kilometers NNE 10.4 mph / 16.7 km/h - N/A   Mostly Cloudy
6:30 PM 53.6 °F / 12.0 °C 51.8 °F / 11.0 °C 94% 29.92 in / 1013 hPa 4.3 miles / 7.0 kilometers ENE 10.4 mph / 16.7 km/h - N/A   Mostly Cloudy
7:00 PM 52 °F / 11 °C 51 °F / 11 °C 95% 29.97 in / 1015 hPa 4 miles / 7 kilometers ESE 8.1 mph / 13.0 km/h - -   Partly Cloudy
7:00 PM 51.8 °F / 11.0 °C 51.8 °F / 11.0 °C 100% 29.95 in / 1014 hPa 4.3 miles / 7.0 kilometers ESE 8.1 mph / 13.0 km/h - N/A   Mostly Cloudy
7:30 PM 50.0 °F / 10.0 °C 50.0 °F / 10.0 °C 100% 29.98 in / 1015 hPa 4.3 miles / 7.0 kilometers Calm Calm - N/A   Mostly Cloudy
8:00 PM 50.0 °F / 10.0 °C 48.2 °F / 9.0 °C 94% 29.98 in / 1015 hPa 5.0 miles / 8.0 kilometers ESE 2.3 mph / 3.7 km/h - N/A   Scattered Clouds
8:30 PM 50.0 °F / 10.0 °C 50.0 °F / 10.0 °C 100% 30.01 in / 1016 hPa 5.0 miles / 8.0 kilometers ENE 5.8 mph / 9.3 km/h - N/A   Mostly Cloudy
9:00 PM 50.0 °F / 10.0 °C 50.0 °F / 10.0 °C 100% 30.01 in / 1016 hPa 5.0 miles / 8.0 kilometers East 5.8 mph / 9.3 km/h - N/A   Mostly Cloudy
9:30 PM 51.8 °F / 11.0 °C 50.0 °F / 10.0 °C 94% 30.01 in / 1016 hPa 5.0 miles / 8.0 kilometers Calm Calm - N/A   Mostly Cloudy
10:00 PM 51 °F / 10 °C 50 °F / 10 °C 95% 30.04 in / 1017 hPa 4 miles / 6 kilometers South 2.3 mph / 3.7 km/h - -   Mostly Cloudy
10:00 PM 50.0 °F / 10.0 °C 50.0 °F / 10.0 °C 100% 30.04 in / 1017 hPa 3.7 miles / 6.0 kilometers South 2.3 mph / 3.7 km/h - N/A   Mostly Cloudy
11:00 PM 50.0 °F / 10.0 °C 50.0 °F / 10.0 °C 100% 30.04 in / 1017 hPa 3.7 miles / 6.0 kilometers SW 1.2 mph / 1.9 km/h - N/A   Scattered Clouds
11:30 PM 48.2 °F / 9.0 °C 48.2 °F / 9.0 °C 100% 30.04 in / 1017 hPa 3.7 miles / 6.0 kilometers Calm Calm - N/A   Mostly Cloudy